Weather reports worldwide

Advertisment
Jerez De La Frontera aeropuert, Spain (8451): temperature & dewpoint: 16.06.2018 20:00:00 - 22.06.2018 20:00:00 (CEST)Jerez De La Frontera aeropuert, Spain (8451): wind speed: 16.06.2018 20:00:00 - 22.06.2018 20:00:00 (CEST)Jerez De La Frontera aeropuert, Spain (8451): wind direction: 16.06.2018 20:00:00 - 22.06.2018 20:00:00 (CEST)Jerez De La Frontera aeropuert, Spain (8451): reduced air pressure: 16.06.2018 20:00:00 - 22.06.2018 20:00:00 (CEST)Jerez De La Frontera aeropuert, Spain (8451): visibility: 16.06.2018 20:00:00 - 22.06.2018 20:00:00 (CEST)
Date & Time tt [°C] td [°C] ff [km/h] ff [kn] dd ppp [hPa] vv [km]
22.06.2018 20:00:00 28,0 18,1 18 10 WSW 1014,0 10
22.06.2018 19:00:00 29,8 18,1 18 10 W 1014,0 10
22.06.2018 18:00:00 31,1 17,9 13 7 WSW 1014,3 10
22.06.2018 17:00:00 31,1 18,1 16 9 WSW 1014,6 10
22.06.2018 16:00:00 30,7 19,1 21 11 WSW 1015,0 10
22.06.2018 15:00:00 33,2 18,2 11 6 - 1015,0 10
22.06.2018 14:00:00 31,8 15,6 8 4 - 1015,4 10
22.06.2018 13:00:00 30,6 17,0 5 3 - 1015,8 10
22.06.2018 12:00:00 28,5 16,8 5 3 NE 1016,8 10
22.06.2018 11:00:00 26,5 18,1 4 2 - 1016,9 10
22.06.2018 10:00:00 24,5 17,9 4 2 - 1017,3 10
22.06.2018 09:00:00 21,7 18,4 0 0 N 1016,8 10
22.06.2018 08:00:00 18,2 17,3 2 1 NE 1016,6 10
22.06.2018 07:00:00 17,6 16,6 0 0 N 1016,7 10
22.06.2018 06:00:00 17,5 16,3 8 4 ENE 1016,2 10
22.06.2018 05:00:00 18,5 17,5 5 3 ESE 1016,6 10
22.06.2018 04:00:00 19,4 18,4 5 3 ESE 1017,0 10
22.06.2018 03:00:00 20,1 18,6 4 2 - 1017,2 10
22.06.2018 02:00:00 19,9 18,4 4 2 - 1017,5 10
22.06.2018 01:00:00 20,2 16,6 8 4 N 1017,5 10
22.06.2018 00:00:00 21,6 15,9 5 3 NNW 1017,2 10
21.06.2018 23:00:00 23,5 15,2 11 6 S 1016,4 10
21.06.2018 22:00:00 24,9 16,1 9 5 SSW 1015,8 10
21.06.2018 21:00:00 27,6 17,5 11 6 W 1015,5 10
21.06.2018 20:00:00 29,3 17,5 15 8 WSW 1015,1 10
21.06.2018 19:00:00 30,0 18,1 18 10 WSW 1014,9 10
21.06.2018 18:00:00 31,0 18,2 21 11 WSW 1015,2 10
21.06.2018 17:00:00 32,3 18,3 5 3 - 1015,1 10
21.06.2018 16:00:00 31,9 16,7 8 4 - 1015,5 10
21.06.2018 15:00:00 30,9 16,7 8 4 E 1016,0 10
21.06.2018 14:00:00 30,3 16,6 5 3 ENE 1016,5 10
21.06.2018 13:00:00 28,7 17,6 5 3 - 1016,7 10
21.06.2018 12:00:00 26,0 18,5 8 4 WNW 1017,0 10
21.06.2018 11:00:00 24,0 19,0 9 5 SW 1017,0 10
21.06.2018 10:00:00 21,6 18,8 4 2 - 1016,3 10
21.06.2018 09:00:00 19,8 18,3 9 5 W 1016,9 10
21.06.2018 08:00:00 19,2 18,0 16 9 W 1016,0 10
21.06.2018 07:00:00 19,9 16,7 5 3 S 1015,3 10
21.06.2018 06:00:00 19,8 16,9 15 8 - 1015,3 10
21.06.2018 05:00:00 20,2 17,9 4 2 - 1015,5 10
21.06.2018 04:00:00 21,5 15,3 0 0 N 1015,7 10
21.06.2018 03:00:00 21,8 15,2 9 5 NW 1015,8 10
21.06.2018 02:00:00 19,9 17,1 11 6 N 1015,6 10
21.06.2018 01:00:00 19,9 16,7 0 0 N 1017,3 10
21.06.2018 00:00:00 20,6 17,4 8 4 W 1016,8 10
20.06.2018 23:00:00 21,3 17,7 13 7 WNW 1016,3 10
20.06.2018 22:00:00 23,1 18,0 9 5 W 1015,4 10
20.06.2018 21:00:00 26,4 17,5 11 6 WNW 1014,7 10
20.06.2018 20:00:00 27,3 17,8 8 4 WSW 1014,4 10
20.06.2018 19:00:00 29,5 18,5 16 9 W 1014,4 10
20.06.2018 18:00:00 29,8 18,0 22 12 W 1014,6 10
20.06.2018 17:00:00 33,9 17,0 5 3 - 1014,7 10
20.06.2018 16:00:00 32,4 16,3 9 5 SE 1015,2 10
20.06.2018 15:00:00 31,6 17,0 5 3 ENE 1015,7 10
20.06.2018 14:00:00 30,7 17,8 11 6 WNW 1016,7 10
20.06.2018 13:00:00 29,2 16,9 13 7 W 1017,0 10
20.06.2018 12:00:00 26,3 16,0 18 10 W 1017,2 10
20.06.2018 11:00:00 26,8 15,2 11 6 WSW 1016,5 10
20.06.2018 10:00:00 25,0 13,0 21 11 ENE 1015,4 10
20.06.2018 09:00:00 22,4 14,8 9 5 NE 1016,2 10
20.06.2018 08:00:00 19,6 15,5 8 4 S 1017,1 10
20.06.2018 07:00:00 17,5 13,2 0 0 N 1016,1 10
20.06.2018 06:00:00 18,0 13,1 2 1 - 1015,7 10
20.06.2018 05:00:00 18,9 14,6 11 6 WNW 1015,8 10
20.06.2018 04:00:00 18,9 12,5 4 2 W 1015,5 10
20.06.2018 03:00:00 19,2 12,7 5 3 NNW 1015,7 10
20.06.2018 02:00:00 20,4 12,9 0 0 N 1015,8 10
20.06.2018 01:00:00 21,8 13,2 5 3 ESE 1016,0 10
20.06.2018 00:00:00 23,4 12,9 13 7 ESE 1015,5 10
19.06.2018 23:00:00 24,3 12,5 11 6 E 1015,2 10
19.06.2018 22:00:00 25,8 12,6 15 8 E 1014,7 10
19.06.2018 21:00:00 28,9 12,7 15 8 ESE 1014,7 10
19.06.2018 20:00:00 31,0 13,6 18 10 E 1014,6 10
19.06.2018 19:00:00 32,6 13,8 22 12 ESE 1014,3 10
19.06.2018 18:00:00 33,5 14,1 22 12 ESE 1014,7 10
19.06.2018 17:00:00 33,7 14,5 24 13 ESE 1015,1 10
19.06.2018 16:00:00 34,1 15,7 22 12 E 1015,6 10
19.06.2018 15:00:00 34,1 14,6 15 8 E 1016,1 10
19.06.2018 14:00:00 33,6 14,1 9 5 - 1016,8 10
19.06.2018 13:00:00 31,8 14,0 9 5 S 1017,2 10
19.06.2018 12:00:00 30,4 14,4 4 2 E 1017,5 10
19.06.2018 11:00:00 28,2 15,4 4 2 W 1017,6 10
19.06.2018 10:00:00 25,9 16,9 2 1 - 1017,9 10
19.06.2018 09:00:00 22,0 18,0 9 5 N 1017,9 7
19.06.2018 08:00:00 18,3 17,0 0 0 N 1017,8 10
19.06.2018 07:00:00 16,1 15,0 2 1 - 1017,7 10
19.06.2018 06:00:00 16,6 14,9 0 0 N 1017,5 10
19.06.2018 05:00:00 16,9 14,5 0 0 N 1017,3 10
19.06.2018 04:00:00 17,8 16,0 5 3 N 1017,6 10
19.06.2018 03:00:00 17,9 14,6 4 2 NNE 1017,7 10
19.06.2018 02:00:00 18,8 14,2 8 4 NNE 1017,7 10
19.06.2018 01:00:00 22,1 12,6 4 2 - 1017,7 10
19.06.2018 00:00:00 23,5 12,5 8 4 S 1017,5 10
18.06.2018 23:00:00 24,3 12,7 15 8 S 1016,7 10
18.06.2018 22:00:00 25,5 13,4 18 10 S 1016,2 10
18.06.2018 21:00:00 27,7 14,3 21 11 S 1015,8 10
18.06.2018 20:00:00 29,7 14,7 22 12 S 1015,3 10
18.06.2018 19:00:00 31,3 15,6 24 13 S 1015,2 10
18.06.2018 18:00:00 31,9 15,4 16 9 S 1015,4 10
18.06.2018 17:00:00 34,8 16,5 16 9 SSE 1015,4 10
18.06.2018 16:00:00 36,8 16,0 16 9 S 1015,6 10
18.06.2018 15:00:00 36,9 14,9 11 6 - 1015,7 10
18.06.2018 14:00:00 35,9 16,0 8 4 - 1016,0 10
18.06.2018 13:00:00 35,0 15,4 9 5 E 1016,4 10
18.06.2018 12:00:00 33,5 13,8 18 10 E 1016,6 10
18.06.2018 11:00:00 32,4 13,6 16 9 E 1016,7 10
18.06.2018 10:00:00 28,8 15,4 8 4 NNE 1017,0 10
18.06.2018 09:00:00 24,6 13,6 2 1 - 1017,1 10
18.06.2018 08:00:00 19,6 13,1 2 1 - 1016,9 10
18.06.2018 07:00:00 18,4 12,5 2 1 - 1016,6 10
18.06.2018 06:00:00 18,6 12,3 9 5 ENE 1016,8 10
18.06.2018 05:00:00 18,4 11,9 8 4 ESE 1017,0 10
18.06.2018 04:00:00 18,5 12,3 0 0 N 1017,0 10
18.06.2018 03:00:00 19,7 12,2 4 2 ESE 1017,2 10
18.06.2018 02:00:00 20,6 13,1 8 4 NE 1017,5 10
18.06.2018 01:00:00 21,8 11,5 4 2 - 1017,6 10
18.06.2018 00:00:00 22,6 11,3 4 2 S 1017,2 10
17.06.2018 23:00:00 24,4 11,4 5 3 S 1016,9 10
17.06.2018 22:00:00 26,4 11,3 9 5 S 1016,6 10
17.06.2018 21:00:00 29,9 13,2 9 5 S 1016,5 10
17.06.2018 20:00:00 32,1 13,2 13 7 S 1016,1 10
17.06.2018 19:00:00 36,5 14,5 8 4 SSE 1015,7 10
17.06.2018 18:00:00 36,6 15,6 9 5 - 1015,9 10
17.06.2018 17:00:00 36,3 15,4 21 11 SW 1016,1 10
17.06.2018 16:00:00 36,1 15,1 5 3 N 1016,1 10
17.06.2018 15:00:00 35,3 15,5 9 5 ENE 1016,4 10
17.06.2018 14:00:00 33,5 16,2 5 3 - 1016,8 10
17.06.2018 13:00:00 31,8 16,5 4 2 NNE 1017,1 10
17.06.2018 12:00:00 29,8 16,3 4 2 - 1017,2 10
17.06.2018 11:00:00 26,9 15,6 5 3 - 1017,3 10
17.06.2018 10:00:00 23,8 13,6 2 1 - 1017,3 10
17.06.2018 09:00:00 20,8 15,6 4 2 - 1017,0 10
17.06.2018 08:00:00 16,4 12,8 0 0 N 1016,5 10
17.06.2018 07:00:00 14,7 12,4 2 1 - 1016,3 10
17.06.2018 06:00:00 15,2 12,3 2 1 - 1015,8 10
17.06.2018 05:00:00 15,8 12,2 2 1 - 1015,7 10
17.06.2018 04:00:00 16,6 12,9 0 0 N 1015,7 10
17.06.2018 03:00:00 16,9 12,8 4 2 NNE 1015,6 10
17.06.2018 02:00:00 18,3 13,7 0 0 N 1015,2 10
17.06.2018 01:00:00 18,4 13,9 5 3 N 1015,3 10
17.06.2018 00:00:00 20,1 13,8 2 1 - 1014,9 10
16.06.2018 23:00:00 22,4 13,5 4 2 - 1014,4 10
16.06.2018 22:00:00 24,5 14,0 8 4 W 1013,7 10
16.06.2018 21:00:00 27,0 14,4 9 5 WNW 1013,2 10
16.06.2018 20:00:00 29,0 15,7 13 7 W 1013,2 10

tt = temperature
td = dewpoint
ff = wind speed
dd = wind direction
ppp = reduced air pressure
vv = visibility

Next stations